Location: McFarlands Corners
(41.4117°N, 81.3382°W)
Time: 13:05:53
(UTC+00:00)

Transit 4A - Pass Details

Date: 16 February 2026
Orbit: 863 x 978 km, 66.8° (Epoch: 17 March)

Event Time Altitude Azimuth Distance (km) Brightness Sun altitude
Rises 08:45:43 0° 189° (S) 3,434 - -40.1°
Reaches altitude 10° 08:48:15 10° 183° (S) 2,508 - -39.7°
Maximum altitude 08:53:43 45° 112° (ESE) 1,189 - -38.7°
Exits shadow 08:55:50 32° 65° (ENE) 1,474 9.3 -38.3°
Drops below altitude 10° 08:59:21 10° 42° (NE) 2,581 10.8 -37.7°
Sets 09:01:59 0° 36° (NE) 3,544 11.6 -37.3°
